• în România
  • Lista ţărilor
  • Pe 7 zile
  • Temperatura apei
  • Hartă satelitară
  • Meteo pe hartă
  • Widget-uri
  • user-avatar
    Intrare

    Meteo pe oră la Hersonissos

    Astăzi, 20 Iulie, Vineri

    Timp Temperatura Precipitaţii Vânt Presiune Umiditate
    00:00 +27°C° 0 mm 1 m/s 740 mmHg 51%
    01:00 +27°C° 0 mm 1 m/s 740 mmHg 52%
    02:00 +26°C° 0 mm 1 m/s 740 mmHg 53%
    03:00 +26°C° 0 mm 1 m/s 740 mmHg 52%
    04:00 +26°C° 0 mm 1 m/s 740 mmHg 50%
    05:00 +26°C° 0 mm 1 m/s 740 mmHg 49%
    06:00 +27°C° 0 mm 1 m/s 740 mmHg 45%
    07:00 +29°C° 0 mm 1 m/s 740 mmHg 41%
    08:00 +30°C° 0 mm 2 m/s 740 mmHg 38%
    09:00 +31°C° 0 mm 2 m/s 740 mmHg 37%
    10:00 +32°C° 0 mm 2 m/s 740 mmHg 35%
    11:00 +34°C° 0 mm 2 m/s 741 mmHg 34%
    12:00 +34°C° 0 mm 3 m/s 741 mmHg 35%
    13:00 +34°C° 0 mm 3 m/s 741 mmHg 36%
    14:00 +35°C° 0 mm 4 m/s 741 mmHg 37%
    15:00 +34°C° 0 mm 4 m/s 741 mmHg 39%
    16:00 +34°C° 0 mm 4 m/s 741 mmHg 40%
    17:00 +34°C° 0 mm 4 m/s 741 mmHg 42%
    18:00 +33°C° 0 mm 4 m/s 740 mmHg 43%
    19:00 +32°C° 0 mm 4 m/s 740 mmHg 45%
    20:00 +30°C° 0 mm 4 m/s 740 mmHg 46%
    21:00 +29°C° 0 mm 4 m/s 740 mmHg 49%
    22:00 +28°C° 0 mm 4 m/s 741 mmHg 51%
    23:00 +27°C° 0 mm 5 m/s 741 mmHg 54%

    Mâine, 21 Iulie, Sâmbătă

    Timp Temperatura Precipitaţii Vânt Presiune Umiditate
    00:00 +27°C° 0 mm 5 m/s 741 mmHg 55%
    01:00 +27°C° 0 mm 5 m/s 741 mmHg 57%
    02:00 +26°C° 0 mm 5 m/s 741 mmHg 59%
    03:00 +26°C° 0 mm 5 m/s 740 mmHg 60%
    04:00 +26°C° 0 mm 5 m/s 740 mmHg 61%
    05:00 +26°C° 0 mm 5 m/s 740 mmHg 62%
    06:00 +27°C° 0 mm 4 m/s 740 mmHg 58%
    07:00 +28°C° 0 mm 4 m/s 741 mmHg 53%
    08:00 +30°C° 0 mm 4 m/s 741 mmHg 48%
    09:00 +32°C° 0 mm 4 m/s 741 mmHg 46%
    10:00 +33°C° 0 mm 4 m/s 741 mmHg 43%
    11:00 +34°C° 0 mm 4 m/s 741 mmHg 40%
    12:00 +34°C° 0 mm 4 m/s 741 mmHg 39%
    13:00 +35°C° 0 mm 4 m/s 741 mmHg 39%
    14:00 +35°C° 0 mm 5 m/s 741 mmHg 38%
    15:00 +35°C° 0 mm 5 m/s 741 mmHg 37%
    16:00 +35°C° 0 mm 5 m/s 741 mmHg 37%
    17:00 +35°C° 0 mm 5 m/s 741 mmHg 36%
    18:00 +34°C° 0 mm 5 m/s 741 mmHg 39%
    19:00 +32°C° 0 mm 5 m/s 741 mmHg 42%
    20:00 +30°C° 0 mm 5 m/s 741 mmHg 45%
    21:00 +29°C° 0 mm 5 m/s 741 mmHg 47%
    22:00 +29°C° 0 mm 5 m/s 741 mmHg 48%
    23:00 +28°C° 0 mm 5 m/s 742 mmHg 50%

    Poimâine, 22 Iulie, Duminică

    Timp Temperatura Precipitaţii Vânt Presiune Umiditate
    00:00 +28°C° 0 mm 5 m/s 741 mmHg 50%
    01:00 +27°C° 0 mm 5 m/s 741 mmHg 50%
    02:00 +27°C° 0 mm 5 m/s 741 mmHg 50%
    03:00 +27°C° 0 mm 5 m/s 741 mmHg 50%
    04:00 +27°C° 0 mm 5 m/s 741 mmHg 50%
    05:00 +27°C° 0 mm 5 m/s 741 mmHg 49%
    06:00 +28°C° 0 mm 5 m/s 741 mmHg 45%
    07:00 +30°C° 0 mm 4 m/s 741 mmHg 41%
    08:00 +33°C° 0 mm 4 m/s 741 mmHg 38%
    09:00 +34°C° 0 mm 4 m/s 741 mmHg 35%
    10:00 +35°C° 0 mm 5 m/s 741 mmHg 32%
    11:00 +36°C° 0 mm 5 m/s 741 mmHg 29%
    12:00 +37°C° 0 mm 5 m/s 741 mmHg 28%
    13:00 +39°C° 0 mm 5 m/s 741 mmHg 26%
    14:00 +39°C° 0 mm 5 m/s 741 mmHg 25%
    15:00 +39°C° 0 mm 5 m/s 741 mmHg 24%
    16:00 +39°C° 0 mm 5 m/s 741 mmHg 24%
    17:00 +39°C° 0 mm 5 m/s 741 mmHg 23%
    18:00 +36°C° 0 mm 5 m/s 741 mmHg 26%
    19:00 +34°C° 0 mm 4 m/s 741 mmHg 29%
    20:00 +33°C° 0 mm 4 m/s 741 mmHg 32%
    21:00 +32°C° 0 mm 4 m/s 741 mmHg 31%
    22:00 +32°C° 0 mm 4 m/s 741 mmHg 30%
    23:00 +30°C° 0 mm 4 m/s 741 mmHg 30%

    23 Iulie, Luni

    Timp Temperatura Precipitaţii Vânt Presiune Umiditate
    00:00 +30°C° 0 mm 4 m/s 741 mmHg 29%
    01:00 +30°C° 0 mm 4 m/s 741 mmHg 28%
    02:00 +30°C° 0 mm 4 m/s 740 mmHg 28%
    03:00 +30°C° 0 mm 4 m/s 740 mmHg 29%
    04:00 +29°C° 0 mm 3 m/s 739 mmHg 30%
    05:00 +29°C° 0 mm 3 m/s 739 mmHg 31%
    06:00 +31°C° 0 mm 3 m/s 739 mmHg 30%
    07:00 +33°C° 0 mm 4 m/s 740 mmHg 29%
    08:00 +35°C° 0 mm 4 m/s 740 mmHg 28%
    09:00 +36°C° 0 mm 4 m/s 740 mmHg 27%
    10:00 +38°C° 0 mm 4 m/s 740 mmHg 26%
    11:00 +40°C° 0 mm 4 m/s 740 mmHg 24%
    12:00 +41°C° 0 mm 4 m/s 740 mmHg 25%
    13:00 +41°C° 0 mm 4 m/s 740 mmHg 26%
    14:00 +41°C° 0 mm 5 m/s 739 mmHg 26%
    15:00 +41°C° 0 mm 5 m/s 739 mmHg 26%
    16:00 +41°C° 0 mm 5 m/s 739 mmHg 26%
    17:00 +41°C° 0 mm 5 m/s 739 mmHg 27%
    18:00 +38°C° 0 mm 4 m/s 739 mmHg 31%
    19:00 +36°C° 0 mm 4 m/s 739 mmHg 35%
    20:00 +34°C° 0 mm 4 m/s 739 mmHg 39%
    21:00 +33°C° 0 mm 3 m/s 739 mmHg 40%
    22:00 +33°C° 0 mm 3 m/s 739 mmHg 41%
    23:00 +31°C° 0 mm 2 m/s 738 mmHg 42%

    24 Iulie, Marţi

    Timp Temperatura Precipitaţii Vânt Presiune Umiditate
    00:00 +30°C° 0 mm 2 m/s 738 mmHg 44%
    01:00 +30°C° 0 mm 2 m/s 738 mmHg 46%
    02:00 +29°C° 0 mm 3 m/s 737 mmHg 48%
    03:00 +29°C° 0 mm 3 m/s 737 mmHg 47%
    04:00 +28°C° 0 mm 3 m/s 737 mmHg 46%
    05:00 +28°C° 0 mm 3 m/s 736 mmHg 45%
    06:00 +29°C° 0 mm 3 m/s 736 mmHg 44%
    07:00 +30°C° 0 mm 3 m/s 737 mmHg 44%
    08:00 +31°C° 0 mm 3 m/s 737 mmHg 44%
    09:00 +32°C° 0 mm 4 m/s 737 mmHg 45%
    10:00 +32°C° 0 mm 4 m/s 737 mmHg 46%
    11:00 +33°C° 0 mm 5 m/s 736 mmHg 47%
    12:00 +33°C° 0 mm 6 m/s 736 mmHg 49%
    13:00 +33°C° 0 mm 7 m/s 736 mmHg 51%
    14:00 +33°C° 0 mm 8 m/s 736 mmHg 53%
    15:00 +33°C° 0 mm 8 m/s 736 mmHg 52%
    16:00 +33°C° 0 mm 8 m/s 736 mmHg 52%
    17:00 +32°C° 0 mm 8 m/s 737 mmHg 52%
    18:00 +30°C° 0 mm 7 m/s 737 mmHg 58%
    19:00 +29°C° 0 mm 7 m/s 737 mmHg 64%
    20:00 +28°C° 0 mm 6 m/s 737 mmHg 70%
    21:00 +27°C° 0 mm 6 m/s 737 mmHg 73%
    22:00 +27°C° 0 mm 5 m/s 737 mmHg 76%
    23:00 +26°C° 0 mm 5 m/s 737 mmHg 78%

    25 Iulie, Miercuri

    Timp Temperatura Precipitaţii Vânt Presiune Umiditate
    00:00 +26°C° 0 mm 5 m/s 737 mmHg 79%
    01:00 +26°C° 0 mm 5 m/s 737 mmHg 79%
    02:00 +25°C° 0 mm 5 m/s 737 mmHg 80%
    03:00 +25°C° 0 mm 5 m/s 737 mmHg 81%
    04:00 +25°C° 0 mm 4 m/s 738 mmHg 82%
    05:00 +25°C° 0 mm 4 m/s 738 mmHg 83%
    06:00 +26°C° 0 mm 4 m/s 738 mmHg 78%
    07:00 +27°C° 0 mm 4 m/s 738 mmHg 72%
    08:00 +28°C° 0 mm 3 m/s 738 mmHg 67%
    09:00 +29°C° 0 mm 4 m/s 739 mmHg 61%
    10:00 +30°C° 0 mm 4 m/s 739 mmHg 56%
    11:00 +32°C° 0 mm 5 m/s 739 mmHg 50%
    12:00 +33°C° 0 mm 5 m/s 739 mmHg 49%
    13:00 +33°C° 0 mm 5 m/s 739 mmHg 49%
    14:00 +34°C° 0 mm 6 m/s 739 mmHg 48%
    15:00 +33°C° 0 mm 5 m/s 739 mmHg 50%
    16:00 +33°C° 0 mm 5 m/s 739 mmHg 51%
    17:00 +32°C° 0 mm 4 m/s 739 mmHg 53%
    18:00 +32°C° 0 mm 4 m/s 739 mmHg 56%
    19:00 +30°C° 0 mm 4 m/s 739 mmHg 59%
    20:00 +29°C° 0 mm 3 m/s 739 mmHg 62%
    21:00 +28°C° 0 mm 3 m/s 739 mmHg 63%
    22:00 +28°C° 0 mm 3 m/s 739 mmHg 64%
    23:00 +27°C° 0 mm 3 m/s 739 mmHg 65%
    Arată mai mult